IRIDIUM 8 [-]

Last updated on Sat Nov 25 2017 00:19:06 GMT+0000 (Greenwich Mean Time)

1 24792U 97020A 17328.50355308 .99999999 -17679-5 36908-3 0 9999 2 24792 86.3363 249.3166 0025759 119.9357 245.3296 16.58206397 76471

Satellite not in orbit